« Back
NWS Peachtree City, Ga » Text Product » GA Regional Weather Roundup


Printer-friendly Version
Current Version              Previous Versions:   1  2  3  4  5  6  7  8  9  

Regional Weather Roundup

548
ASUS42 KFFC 010303
RWRGA
WEATHER ROUNDUP FOR GEORGIA
NATIONAL WEATHER SERVICE PEACHTREE CITY GA
1100 PM EDT TUE MAY 31 2016

NOTE: "FAIR" INDICATES FEW OR NO CLOUDS BELOW 12,000 FEET WITH NO
SIGNIFICANT WEATHER AND/OR OBSTRUCTIONS TO VISIBILITY.

* = USE WITH CAUTION. THE STATIONS MARKED WITH AN ASTERISK MAY NOT
REPORT WEATHER SUCH AS PRECIPITATION, FOG, OR THUNDER AND ARE NOT
QUALITY CONTROLLED BY NWS.

THE REMARK "TC" DENOTES TEMPERATURE READING IN DEGREES CELSIUS.

GAZ001>058-010400-
NORTH GEORGIA

CITY           SKY/WX    TMP DP  RH WIND       PRES   REMARKS
ATLANTA        MOCLDY    80  64  58 CALM      29.97R
ATHENS         PTCLDY    71  69  93 E7        29.97R
CHAMBLEE       CLEAR     79  64  60 E3        29.97R
PEACHTREE CITY CLEAR     71  67  87 CALM      29.96R
ROME           CLEAR     74  64  71 CALM      29.94R
WEST ATLANTA   CLEAR     76  62  62 NE3       29.96R
GAINESVILLE    CLEAR     74  62  66 E6        30.01R
CARTERSVILLE   CLEAR     69  64  84 CALM      29.95R


CITY           SKY/WX    TMP DP  RH WIND       PRES   REMARKS
DALTON*        CLEAR     72  64  78 CALM      29.94R
CANTON*        CLEAR     77  57  50 CALM      29.99R
BLAIRSVILLE*     N/A    N/A N/A N/A MISG      30.02S
$$

GAZ059>098-102>109-010400-
CENTRAL GEORGIA

CITY           SKY/WX    TMP DP  RH WIND       PRES   REMARKS
AUGUSTA-BUSH   CLEAR     73  71  93 SE6       29.94R
AUGUSTA-DANIEL CLEAR     82  66  58 E7        29.96R
COLUMBUS       PTCLDY    81  64  56 W5        29.93R
MACON          CLEAR     75  68  78 CALM      29.93R


CITY           SKY/WX    TMP DP  RH WIND       PRES   REMARKS
LAGRANGE*      PTCLDY    70  70 100 CALM      29.95R
SYLVANIA*      CLEAR     79  74  84 CALM      29.95R
MILLEDGEVILLE* CLEAR     75  70  83 CALM      29.94R
$$

GAZ099>101-110>166-010400-
SOUTH GEORGIA

CITY           SKY/WX    TMP DP  RH WIND       PRES   REMARKS
SAVANNAH       PTCLDY    75  71  87 S5        29.96R
VALDOSTA       MOCLDY    75  68  78 CALM      29.96R
ALMA           PTCLDY    72  67  84 CALM      29.94R
ST SIMONS      PTCLDY    78  74  87 E7        29.94R
ALBANY         CLOUDY    80  65  59 SW7       29.95R
BRUNSWICK      PTCLDY    79  75  89 NE3       29.96R


CITY           SKY/WX    TMP DP  RH WIND       PRES   REMARKS
BAINBRIDGE*    CLOUDY    77  64  65 SW3       29.94R
MOULTRIE*      PTCLDY    79  66  65 CALM      29.95R
VIDALIA*       CLEAR     77  68  73 S6        29.95R
DOUGLAS*       CLOUDY    79  64  61 CALM      29.96S
$$




USA.gov is the U.S. government's official web portal to all federal, state and local government web resources and services.